#timestamp,LO_Frequency,Hit 
1501477215.3,286047002.6,N
1501477235.1,286046999.9,N
1501477255.9,286047002.2,N
1501477275.7,286047001.5,N
1501477295.5,286047001.5,N
1501477315.4,286047000.0,N
1501477335.2,286047002.8,N
1501477355.0,286047001.4,N
1501477355.9,286047001.4,N
1501477375.8,286047003.8,N
1501477395.6,286047005.5,N
1501477415.4,286047003.4,N
1501477435.2,286047003.4,N
1501477455.1,286047001.3,N
1501477456.0,286047001.3,N
1501477475.8,286047002.4,N
1501477495.6,286047001.8,N
1501477515.5,286047001.5,N
1501477535.3,286047001.3,N
1501477555.1,286047002.9,N
1501477575.9,286047003.6,N
1501477595.7,286047003.1,N
1501477615.5,286047003.7,N
1501477635.4,286047004.4,N
1501477655.2,286047004.1,N
1501477675.0,286047005.4,N
1501477675.9,286047005.4,N
1501477695.8,286047004.6,N
1501477715.6,286047004.2,N
1501477735.4,286047001.7,N
1501477755.2,286047001.4,N
1501477775.1,286047003.8,N
1501477776.0,286047003.8,N
1501477795.8,286047001.5,N
1501477815.6,286047002.7,N
1501477835.5,286047001.8,N
1501477855.3,286047005.2,N
1501477875.1,286047003.0,N
1501477895.9,286047004.2,N
1501477915.7,286047001.9,N
1501477935.5,286047002.5,N
1501477955.4,286047004.3,N
1501477975.2,286047003.1,N
1501477995.0,286047007.1,N
1501477995.9,286047007.1,N
1501478015.8,286047007.2,N
1501478035.6,286047009.0,N
1501478055.4,286047004.6,N
1501478075.2,286047007.3,N
1501478095.1,286047007.6,N
1501478096.0,286047007.6,N
1501478115.8,286047006.9,N
1501478135.6,286047007.1,N
1501478155.5,286047006.3,N
1501478175.3,286047008.0,N
1501478195.1,286047009.1,N
1501478215.9,286047008.2,N
1501478235.7,286047009.6,N
1501478255.5,286047009.1,N
1501478275.4,286047004.5,N
1501478295.2,286047010.4,N
1501478315.0,286047010.5,N
1501478315.9,286047010.5,N
1501478335.8,286047010.7,N
1501478355.6,286047006.8,N
1501478375.4,286047006.1,N
1501478395.2,286047005.4,N
1501478415.1,286047006.0,N
1501478416.0,286047006.0,N
1501478435.8,286047004.6,N
1501478455.6,286047009.0,N
1501478475.5,286047006.4,N
1501478495.3,286047006.6,N
1501478515.1,286047007.4,N
1501478535.9,286047010.3,N
1501478555.7,286047009.5,N
1501478575.5,286047010.8,N
1501478595.4,286047009.6,N
1501478615.2,286047012.3,N
1501478635.0,286047009.5,N
1501478635.9,286047009.5,N
1501478655.8,286047007.9,N
1501478675.6,286047009.8,N
1501478695.4,286047012.1,N
1501478715.3,286047012.6,N
1501478735.1,286047011.7,N
1501478736.0,286047011.7,N
1501478755.8,286047012.7,N
1501478775.6,286047014.3,N
1501478795.5,286047014.5,N
1501478815.3,286047013.3,N
1501478835.1,286047013.6,N
1501478855.9,286047014.0,N
1501478875.7,286047010.5,N
1501478895.5,286047008.0,N
1501478915.4,286047007.7,N
1501478935.2,286047007.8,N
1501478955.0,286047010.5,N
1501478955.9,286047010.5,N
1501478975.8,286047010.7,N
1501478995.6,286047008.0,N
1501479015.4,286047007.7,N
1501479035.2,286047011.1,N
1501479055.1,286047015.4,N
1501479056.0,286047015.4,N
1501479075.8,286047015.2,N
1501479095.6,286047013.8,N
1501479115.5,286047011.8,N
1501479135.3,286047013.5,N
1501479155.1,286047014.0,N
1501479175.9,286047010.5,N
1501479195.7,286047010.9,N
1501479215.5,286047015.5,N
1501479235.4,286047010.0,N
1501479255.2,286047012.1,N
1501479275.0,286047011.5,N
1501479275.9,286047011.5,N
1501479295.8,286047013.4,N
1501479315.6,286047010.2,N
1501479335.4,286047010.9,N
1501479355.2,286047009.7,N
1501479375.1,286047008.6,N
1501479376.0,286047008.6,N
1501479395.8,286047010.7,N
1501479415.6,286047008.1,N
1501479435.5,286047012.4,N
1501479455.3,286047013.7,N
1501479475.1,286047015.2,N
1501479495.9,286047013.0,N
1501479515.7,286047012.6,N
1501479535.5,286047011.3,N
1501479555.4,286047011.2,N
1501479575.2,286047010.1,N
1501479595.0,286047010.5,N
1501479595.9,286047010.5,N
1501479615.8,286047010.8,N
1501479635.6,286047014.0,N
1501479655.4,286047011.1,N
1501479675.2,286047011.7,N
1501479695.1,286047009.5,N
1501479696.0,286047009.5,N
1501479715.8,286047012.0,N
1501479735.6,286047013.9,N
1501479755.5,286047011.2,N
1501479775.3,286047010.2,N
1501479795.1,286047010.9,N
1501479815.9,286047014.0,N
1501479835.7,286047009.4,N
1501479855.5,286047009.0,N
1501479875.4,286047006.8,N
1501479895.2,286047007.4,N
1501479915.0,286047010.0,N
1501479915.9,286047010.0,N
1501479935.7,286047009.8,N
1501479955.6,286047010.4,N
1501479975.4,286047009.8,N
1501479995.2,286047010.5,N
1501480015.1,286047010.5,N
1501480016.0,286047010.5,N
1501480035.8,286047012.3,N
1501480055.6,286047007.7,N
1501480075.5,286047010.6,N
1501480095.3,286047010.0,N
1501480115.1,286047014.0,N
1501480135.9,286047011.5,N
1501480155.7,286047017.0,N
1501480175.5,286047015.6,N
1501480195.3,286047015.3,N
1501480215.2,286047015.4,N
1501480235.0,286047014.3,N
1501480235.9,286047014.3,N
1501480255.7,286047016.5,N
1501480275.6,286047016.5,N
1501480295.4,286047015.8,N
1501480315.2,286047014.5,N
1501480335.1,286047017.0,N
1501480336.0,286047017.0,N
1501480355.8,286047015.6,N
1501480375.6,286047013.0,N
1501480395.5,286047011.6,N
1501480415.3,286047012.0,N
1501480435.1,286047008.1,N
1501480455.9,286047007.3,N
1501480475.7,286047005.8,N
1501480495.5,286047004.7,N
1501480515.3,286047007.9,N
1501480535.2,286047010.3,N
1501480555.9,286047007.8,N
1501480575.7,286047008.0,N
1501480595.6,286047005.5,N
1501480615.4,286047005.9,N
1501480635.2,286047005.3,N
1501480655.1,286047007.4,N
1501480656.0,286047007.4,N
1501480675.8,286047010.5,N
1501480695.6,286047010.4,N
1501480715.4,286047011.2,N
1501480735.3,286047012.0,N
1501480755.1,286047014.0,N
1501480775.8,286047009.5,N
1501480795.7,286047010.1,N
